Theta_e
340 340 341 339 340 341 341 339 338 336 332 332 338 337 336 338 340 338 339 346 343 341 339 336 337 341 337 337 336 338 340 336 336 335 333 332 332 334 336 334 335 336 335 335 335 336 335 334 332 331 333 332 332 331 331 331 329 329 329 328 329 330 330 330 329 330 330 331 331 331 330 330 329 328 328 328 328 329 329 329 330 330 329 329 329
340 341 340 339 339 340 339 340 339 339 335 330 338 338 335 336 339 338 337 343 342 340 338 338 335 335 335 334 338 336 342 338 336 336 334 333 333 334 336 334 336 336 335 335 337 337 337 333 331 333 332 331 331 329 329 330 330 329 329 328 328 328 328 328 328 329 329 329 329 329 330 329 329 329 329 329 329 330 330 330 330 330 329 329 329
341 341 341 341 341 339 339 341 340 340 338 337 337 338 336 335 341 339 340 341 340 342 338 336 334 333 334 333 336 338 337 340 337 337 335 333 333 334 335 336 335 336 336 338 337 335 333 331 332 330 330 332 331 330 330 330 329 329 329 328 327 327 329 329 330 329 329 329 328 329 329 329 330 330 330 330 331 330 331 331 330 330 330 329 329
342 342 341 341 342 342 343 340 340 341 340 337 338 338 338 339 341 342 346 347 341 340 338 336 334 330 335 333 333 335 337 337 338 337 336 334 332 332 333 335 336 336 336 336 336 334 333 333 334 332 331 332 331 330 328 328 327 329 328 327 327 328 328 328 329 329 328 328 328 328 328 328 329 330 331 330 331 331 331 330 330 330 330 330 329
343 342 343 342 340 342 341 342 343 342 340 341 339 337 336 340 340 341 344 344 343 341 340 336 335 334 333 332 333 333 336 336 337 337 337 335 333 332 331 332 332 338 337 335 333 331 331 334 334 332 329 331 331 330 329 327 326 327 326 326 327 327 327 327 327 327 327 327 328 327 327 327 329 330 331 331 330 330 330 330 330 330 330 330 330
343 342 343 341 340 342 342 342 342 342 340 341 340 337 338 337 336 336 339 340 341 341 338 336 335 334 337 335 334 338 336 337 337 338 338 336 335 333 332 331 332 332 333 334 333 333 334 334 334 332 329 329 331 331 330 329 327 328 328 329 327 328 327 326 327 327 328 327 328 328 328 327 328 330 330 330 330 329 329 329 329 329 329 329 329
343 344 343 343 342 341 342 342 343 342 341 341 338 340 339 340 337 334 337 339 340 337 337 336 335 331 334 336 333 337 338 337 338 338 338 337 336 334 333 332 331 331 332 331 334 336 334 334 334 333 330 328 331 330 330 328 327 329 329 327 327 327 326 326 326 327 327 327 328 328 328 328 329 329 329 329 329 329 329 329 329 328 329 329 329
343 344 343 343 342 341 342 343 343 342 341 338 340 338 341 342 340 338 336 334 339 338 337 335 334 337 336 338 337 336 338 339 338 337 337 338 337 338 337 335 334 332 334 330 330 333 337 334 334 332 329 328 330 330 331 328 327 329 328 328 329 329 328 328 327 327 328 328 329 329 329 329 329 330 329 329 329 329 328 328 329 329 329 328 328
343 343 342 343 343 342 342 341 343 343 340 341 339 343 338 338 339 339 336 336 333 336 335 334 334 339 341 338 337 337 338 338 337 337 339 340 340 337 337 337 336 337 335 332 331 330 334 335 333 333 331 330 330 330 329 328 328 328 327 327 329 328 328 328 327 326 327 328 329 330 330 329 329 329 328 328 328 328 328 328 328 328 328 328 328
343 342 342 343 342 342 343 343 342 342 342 338 341 341 340 339 336 334 332 332 332 333 333 335 335 334 337 334 339 338 339 339 338 339 339 337 337 336 338 339 338 335 336 334 331 329 329 333 334 333 332 334 331 330 330 329 329 328 329 327 327 328 328 328 328 327 327 328 329 329 329 329 329 329 328 328 328 328 328 329 329 329 329 329 329
342 341 341 341 340 340 341 342 342 342 341 340 339 339 339 338 334 333 335 333 333 333 338 333 332 333 333 333 340 336 341 340 338 340 337 337 338 336 337 337 336 337 336 336 332 329 328 328 328 327 328 334 331 330 330 330 329 329 329 329 328 329 330 330 329 328 328 329 329 329 329 329 329 329 329 329 329 329 329 330 330 330 330 329 329
340 341 341 341 340 339 340 341 341 341 339 338 337 335 336 337 333 333 333 333 334 334 337 335 333 333 330 332 334 332 331 337 341 338 336 336 335 337 337 337 337 336 337 335 333 329 328 328 328 326 328 331 332 332 331 330 331 330 330 329 329 328 328 328 329 329 328 329 329 329 329 329 329 329 329 330 329 329 330 330 330 330 329 329 329
341 340 341 341 341 341 340 340 340 340 338 337 339 339 339 339 336 332 332 332 333 337 332 334 331 330 332 330 332 334 335 333 335 336 335 336 336 335 335 334 335 334 335 337 334 331 328 328 328 327 326 327 329 333 333 333 332 330 329 330 330 329 329 328 329 330 328 329 329 329 329 329 329 329 330 330 330 330 330 330 330 330 330 329 329
342 341 341 340 339 340 340 339 339 339 339 339 339 340 339 338 337 333 335 332 331 333 334 333 329 325 324 322 326 328 333 334 334 335 334 336 334 334 335 333 334 335 334 335 336 335 333 333 335 328 327 328 328 328 331 332 331 331 329 329 330 330 329 329 329 329 329 328 329 329 329 329 329 329 330 329 329 329 330 330 330 330 330 330 329
341 341 340 340 339 338 338 339 339 339 338 338 338 337 337 337 335 333 332 333 332 335 336 334 327 329 329 325 321 320 327 329 331 333 335 333 334 333 334 334 334 334 334 334 334 334 335 334 335 333 331 330 330 330 329 330 331 333 332 331 331 330 330 330 329 329 329 329 329 329 329 329 329 329 329 330 329 330 330 330 330 329 329 329 329
340 340 340 340 339 339 339 339 339 339 338 337 337 335 335 336 335 333 333 329 329 330 333 334 332 325 319 320 322 322 318 322 326 330 334 332 333 333 333 333 334 333 333 333 333 333 334 335 334 335 335 333 332 331 331 330 333 335 334 333 334 331 330 331 330 331 329 329 328 329 329 328 329 329 329 329 329 330 330 330 329 328 328 328 328
341 341 340 339 339 339 340 339 338 339 339 337 336 336 335 337 336 334 332 330 328 330 332 335 333 331 328 322 319 317 317 324 326 326 332 330 332 333 333 331 331 332 333 334 337 334 335 334 333 334 334 334 335 333 332 332 332 334 333 334 334 334 332 332 331 331 329 329 329 329 329 329 328 329 330 330 330 330 330 330 328 328 328 327 326
341 341 340 340 339 338 339 339 337 338 337 337 337 337 337 337 336 335 333 333 333 329 331 333 335 335 333 330 330 322 320 325 324 317 328 331 331 332 333 332 332 331 334 333 334 330 334 331 333 335 336 335 334 333 333 332 333 331 331 331 334 334 332 333 333 332 331 331 331 330 330 329 328 329 331 331 330 331 330 329 328 327 327 326 326
341 340 341 341 341 340 339 339 338 337 337 337 337 337 337 337 337 336 335 334 335 328 328 327 330 332 334 334 334 333 332 324 320 323 317 324 328 328 329 332 332 331 332 334 334 333 331 332 332 334 333 333 333 333 333 333 334 334 333 331 330 332 330 329 332 333 332 331 332 331 331 331 329 330 331 331 331 330 330 328 327 326 326 326 326
341 341 341 341 340 340 339 339 338 337 336 336 336 337 337 337 336 335 336 334 332 330 329 329 326 328 334 332 332 333 332 333 331 324 322 318 321 327 329 328 329 330 331 331 331 332 332 335 334 333 333 334 334 333 334 334 333 333 331 328 329 331 329 329 325 325 330 332 334 333 332 332 331 331 331 331 330 329 327 326 326 326 325 325 325
340 340 341 340 339 340 340 338 339 338 336 336 337 337 336 334 334 332 331 333 331 332 331 328 329 329 330 330 332 331 332 333 332 328 322 319 320 321 322 326 328 330 330 334 331 332 332 332 333 334 333 332 334 334 335 334 334 333 329 325 327 327 327 326 318 319 323 331 333 333 332 333 333 333 332 331 330 328 326 326 326 325 324 324 324
341 341 340 340 340 340 340 339 338 339 339 337 337 336 335 333 332 332 333 333 334 333 332 332 331 333 332 330 328 328 328 328 328 327 326 325 319 320 322 321 320 325 329 330 330 332 333 333 331 333 332 333 333 334 334 334 333 332 326 324 325 326 326 323 316 313 316 326 333 332 333 332 332 332 332 331 330 328 327 326 325 324 324 323 323
340 341 341 341 341 340 339 338 338 339 338 337 336 336 335 333 333 332 334 335 334 334 332 334 334 333 332 331 329 328 326 324 324 326 324 322 321 321 323 323 324 323 327 330 329 331 332 332 331 330 333 333 334 334 333 333 332 328 324 324 324 327 324 320 316 310 314 327 334 332 332 332 332 332 332 331 329 328 327 326 324 324 323 323 323
341 339 340 340 339 338 338 339 337 337 338 337 337 336 335 335 333 333 334 335 335 334 331 331 333 332 332 332 331 331 330 328 329 327 324 323 323 321 322 324 325 325 328 329 332 330 331 333 333 332 332 332 332 332 332 332 328 323 322 323 325 326 323 320 318 316 315 327 329 332 331 332 333 333 332 331 329 327 327 326 324 324 324 324 324
335 335 336 338 337 337 337 337 335 335 336 337 336 336 336 334 332 333 334 334 333 333 332 332 332 331 331 333 332 331 330 330 330 327 327 327 325 321 324 326 321 322 326 328 326 329 331 331 334 333 333 332 332 331 331 329 325 323 323 321 322 321 322 323 322 318 320 321 325 331 332 332 332 332 332 330 327 327 326 325 323 321 322 324 323
335 335 335 335 334 333 335 335 335 334 335 335 335 336 335 334 333 331 332 333 333 333 332 332 332 332 333 331 331 330 330 331 331 329 328 325 323 321 321 322 322 323 325 325 327 325 326 330 331 331 331 330 331 329 328 328 326 323 324 324 320 320 320 322 323 323 320 317 318 319 322 325 328 328 329 327 327 322 319 317 316 316 315 316 322
338 338 336 334 336 337 334 333 333 334 335 334 333 335 335 335 333 332 332 334 333 332 331 331 330 331 332 332 330 329 330 332 332 330 330 329 326 324 322 318 319 322 322 325 326 326 324 327 328 331 330 330 329 330 329 328 326 322 322 326 324 317 318 320 325 324 319 315 313 314 315 319 321 319 319 318 315 317 320 319 317 315 313 315 319
338 338 339 339 337 337 333 333 333 334 333 334 335 332 332 331 332 331 330 334 332 331 330 331 330 331 331 332 332 331 331 331 332 330 330 330 329 326 325 323 319 316 319 318 320 321 328 325 328 331 330 329 327 329 329 327 325 323 327 326 325 320 316 317 321 321 318 317 315 313 314 316 316 315 316 318 320 320 319 319 318 316 315 317 322
338 339 339 338 338 336 335 334 334 334 332 332 334 335 333 332 331 331 331 332 332 331 330 330 329 332 331 332 331 332 332 332 332 331 332 331 329 328 329 325 324 319 315 316 318 319 322 325 324 328 332 327 326 328 327 327 325 326 328 327 326 324 316 317 316 317 316 315 316 316 315 315 316 318 320 321 321 321 320 318 317 316 316 321 322
337 338 337 336 337 337 335 334 333 333 333 334 333 332 331 331 332 333 331 331 330 330 330 331 330 331 330 332 331 331 332 331 330 331 332 332 332 331 330 328 326 322 319 316 317 322 321 325 326 325 328 326 325 324 324 327 322 327 328 328 327 325 314 314 313 312 311 313 312 310 311 313 316 320 321 321 320 320 318 316 315 315 318 321 321
336 336 336 334 336 335 335 334 333 329 329 330 333 333 331 331 332 331 332 332 331 329 331 331 330 330 330 330 331 331 332 331 330 331 332 333 332 332 330 329 325 325 324 321 317 322 326 322 324 327 327 327 326 322 321 326 326 326 327 328 328 318 314 314 312 311 312 314 310 310 314 314 314 316 318 319 320 318 316 317 319 318 320 320 319
334 335 335 335 336 335 335 334 333 331 332 332 332 332 331 331 331 330 331 331 331 329 330 332 332 331 331 331 331 330 332 332 332 332 332 333 333 331 332 329 328 326 327 323 320 320 328 325 324 327 329 326 324 318 319 323 326 321 327 327 322 315 320 317 312 312 313 312 312 317 321 318 315 317 319 321 320 319 318 319 319 319 320 316 314
334 334 335 333 333 333 333 331 330 331 329 329 330 331 330 330 330 331 332 331 329 330 330 330 331 332 330 331 331 331 332 331 331 332 331 332 333 333 330 327 327 331 327 322 321 320 324 327 327 325 327 327 319 320 319 321 323 323 324 323 321 324 324 321 317 311 311 311 311 313 314 311 313 320 321 320 320 319 315 315 315 313 315 315 311
333 333 334 334 334 333 332 331 331 331 331 330 330 330 331 330 328 330 329 330 329 329 331 329 330 331 331 330 331 331 332 331 331 331 331 331 331 330 327 327 328 329 328 325 323 322 321 325 325 327 328 329 319 320 319 320 322 322 323 324 325 326 325 323 318 315 309 311 311 311 311 310 311 314 314 311 311 312 311 311 312 311 314 310 306
333 333 333 333 332 331 332 332 332 331 330 330 330 331 330 330 328 329 329 328 327 329 329 329 330 331 331 330 330 330 331 331 331 331 331 332 332 329 327 329 326 325 326 325 326 322 322 322 325 323 324 324 322 316 319 321 321 320 319 320 322 325 325 324 322 318 308 308 309 310 309 309 309 311 311 311 310 310 309 309 309 309 309 307 304
331 333 333 332 332 332 331 331 331 331 330 330 331 332 331 330 328 327 329 329 329 329 330 330 330 331 330 329 330 330 330 329 331 331 331 329 329 329 328 327 328 326 328 327 326 325 323 322 322 323 325 322 323 316 316 317 319 317 315 315 319 322 322 323 322 320 310 308 308 309 309 309 309 310 310 310 310 309 308 309 308 308 306 307 305
329 331 331 332 331 332 329 331 330 330 329 330 329 329 329 329 329 329 328 328 329 330 330 329 331 330 330 329 330 330 329 329 330 331 330 329 329 327 325 327 329 328 328 325 326 327 322 321 321 322 322 323 321 314 314 313 315 318 315 314 318 322 320 319 318 320 310 307 308 309 308 308 308 308 309 308 308 308 307 307 307 306 306 306 305
328 329 330 330 331 331 331 330 331 332 331 331 330 329 329 330 329 329 329 329 329 329 329 330 330 331 329 329 329 329 329 329 328 329 328 328 330 328 327 325 325 326 325 324 324 325 325 322 321 319 320 319 316 316 316 314 313 314 314 314 314 313 315 316 316 318 316 313 314 312 307 306 306 307 307 307 307 306 306 306 306 305 305 304 304
322 325 328 329 329 330 329 330 330 330 331 332 332 330 330 330 329 328 327 327 328 329 328 329 329 329 330 329 328 329 328 328 329 329 327 328 325 326 327 324 323 325 324 324 324 323 325 321 320 320 318 319 318 316 318 317 315 314 310 308 307 308 313 313 312 315 318 318 315 311 311 311 310 308 306 307 306 306 306 304 305 305 304 303 302
319 320 322 327 329 330 329 329 329 330 330 330 331 330 329 330 329 328 328 328 329 328 329 329 330 328 329 330 329 329 328 329 329 327 329 326 324 325 326 326 324 325 325 323 323 322 321 319 317 316 316 316 316 317 318 315 312 309 309 309 306 307 311 312 311 311 315 316 315 316 313 312 309 309 306 305 305 304 303 303 305 305 304 302 301
316 318 321 325 327 328 330 328 327 328 329 330 330 330 329 329 330 329 328 328 328 327 328 328 328 328 327 328 329 329 329 329 323 322 323 325 327 325 327 326 324 325 322 322 320 321 320 318 317 318 315 314 312 312 309 308 307 307 309 310 310 310 311 312 311 313 313 313 313 313 313 314 311 313 311 311 307 306 306 306 303 303 301 299 300
313 316 318 321 323 325 327 327 327 327 328 329 327 318 319 330 328 328 327 327 328 326 327 327 326 328 329 327 329 329 323 321 318 312 313 316 321 326 327 327 326 323 321 322 321 321 320 317 316 316 313 311 310 313 312 311 313 312 311 312 310 311 310 311 316 319 315 312 310 308 310 311 310 309 308 308 309 309 308 307 305 302 301 300 300
311 312 314 314 317 321 324 326 326 325 326 328 311 305 305 311 328 328 327 327 328 327 327 326 327 327 328 327 325 322 317 317 312 304 305 308 311 312 315 318 323 323 322 322 321 319 318 318 320 318 313 311 313 316 314 316 317 316 311 313 311 311 309 309 310 315 321 323 316 315 314 317 316 311 310 308 307 305 303 301 300 300 300 300 299
309 309 309 310 312 316 319 321 323 325 327 313 301 301 300 300 312 327 326 325 325 325 326 324 326 328 326 325 324 323 323 319 315 311 305 299 298 298 298 300 308 311 313 320 321 319 319 319 317 317 317 314 315 316 313 314 316 314 315 314 314 311 312 312 311 312 319 322 317 316 315 317 314 310 307 307 305 304 302 300 299 299 299 299 299
307 307 307 307 308 310 312 315 317 315 314 297 294 295 298 300 303 318 326 325 324 325 325 326 326 326 327 325 324 326 326 318 320 316 313 308 303 302 303 303 302 305 307 308 311 321 324 321 318 318 321 317 315 316 318 317 319 315 315 315 317 316 317 315 312 313 315 321 316 314 313 314 312 307 305 305 303 302 300 299 300 299 299 299 299
305 305 305 305 305 306 307 309 313 311 307 297 292 294 294 294 296 306 326 326 325 327 327 325 324 324 324 323 322 323 325 323 321 319 319 320 321 322 320 317 315 310 303 303 306 308 317 323 321 319 322 323 321 323 323 322 320 319 318 315 316 316 316 314 314 313 314 318 317 315 312 313 313 308 304 303 303 302 301 300 299 299 299 299 299
304 303 304 303 302 303 303 304 308 309 307 295 292 292 293 293 293 305 325 326 325 324 325 325 324 325 325 325 325 325 325 325 321 319 321 321 322 317 314 311 308 305 306 311 319 325 325 322 316 314 315 318 317 318 323 323 323 322 321 319 320 318 316 315 314 312 311 313 313 314 309 313 315 310 306 304 304 302 302 299 299 299 299 299 299
304 303 303 302 301 301 301 301 302 304 305 296 293 292 293 294 301 321 325 325 323 321 317 315 315 318 323 324 321 320 322 324 313 307 315 322 318 314 312 309 307 305 302 299 297 308 315 313 310 308 305 303 302 306 308 318 322 323 322 321 321 317 313 310 308 308 307 310 310 310 307 304 310 311 308 305 302 300 300 299 298 299 299 299 299
303 302 302 301 301 300 300 299 299 301 302 298 293 293 293 298 313 323 322 319 317 315 312 311 310 310 314 323 323 323 321 314 303 302 305 311 317 315 312 309 308 307 305 303 297 296 296 296 295 296 296 297 298 298 299 299 306 318 319 317 314 315 311 306 305 305 304 305 305 307 306 302 305 306 308 304 301 299 300 301 300 299 299 299 299
302 302 302 302 301 301 300 298 298 298 300 298 293 293 296 302 312 320 318 315 313 312 310 310 309 306 304 305 313 313 311 308 301 301 303 312 316 314 311 309 307 306 306 307 305 301 296 296 297 298 298 298 299 299 299 300 301 308 317 314 314 313 311 308 303 301 302 302 302 306 308 304 306 305 303 305 303 302 301 301 300 300 298 298 298
303 303 303 302 301 301 301 300 299 297 297 297 294 293 297 300 311 319 317 314 312 310 308 306 306 305 303 300 299 299 302 298 297 301 303 311 314 312 311 309 308 307 308 309 308 310 312 313 313 312 308 306 310 308 306 301 302 306 309 310 313 314 309 307 303 301 299 300 302 304 306 303 304 303 303 301 300 304 303 302 301 300 299 299 298
Wind_Speed
4 6 5 4 4 6 6 4 5 3 5 7 5 5 5 5 4 5 6 3 1 2 3 3 3 0 3 2 4 3 1 6 7 10 8 7 6 7 9 8 7 9 7 8 7 8 9 9 8 8 10 8 9 9 9 10 9 9 9 10 10 11 11 11 11 11 12 14 14 14 14 14 14 14 14 14 14 14 14 15 15 15 15 16 16
4 0 2 2 3 4 5 7 7 2 4 6 6 6 5 6 5 7 6 3 2 2 3 3 4 3 3 3 2 4 1 3 5 8 8 7 7 6 10 8 7 6 7 7 8 9 10 9 7 10 8 9 9 8 10 10 10 10 9 9 10 10 10 10 11 12 12 13 13 14 13 13 14 14 14 14 15 15 14 15 15 15 15 16 16
1 1 2 2 3 5 4 2 2 3 4 5 6 6 7 6 5 4 3 4 3 3 4 3 5 5 5 4 1 3 3 2 4 6 9 8 6 5 6 9 6 4 3 7 9 8 7 6 9 8 8 9 10 9 9 10 10 10 10 10 9 10 12 12 13 13 13 13 14 13 13 14 14 14 14 15 14 14 15 15 15 15 15 16 16
4 3 3 4 3 2 3 3 5 4 5 5 4 7 6 5 3 4 2 1 4 2 5 5 8 5 4 5 4 4 3 4 4 6 8 8 7 6 5 5 7 6 6 7 8 7 7 8 9 8 9 11 10 9 9 8 9 11 10 10 10 10 11 12 12 12 13 13 13 13 13 12 14 14 14 15 15 15 15 15 15 15 15 16 16
5 5 4 4 4 2 2 2 4 5 3 2 3 3 10 3 3 3 2 2 3 4 5 5 6 4 3 4 4 4 3 5 4 5 6 8 7 7 6 5 5 5 6 6 2 4 5 8 9 9 7 10 9 10 9 8 8 9 10 10 10 10 11 10 11 12 12 13 13 13 13 12 13 14 14 14 14 14 14 14 14 14 15 16 16
3 2 2 3 3 4 5 6 4 2 3 3 3 4 8 4 4 4 4 4 2 1 4 6 5 4 3 3 3 2 4 4 4 4 6 6 7 7 6 6 5 4 4 6 5 3 6 7 9 9 7 8 9 9 10 10 9 11 10 11 11 11 10 11 12 13 12 13 14 13 13 12 12 13 13 14 13 13 13 13 13 14 14 15 15
4 2 2 3 3 3 3 3 4 5 5 4 3 5 5 2 4 4 3 2 2 4 5 5 3 5 3 3 4 4 2 4 4 4 4 5 5 5 7 6 6 5 4 4 5 6 7 8 9 8 8 7 10 10 10 9 9 11 11 10 10 11 11 11 12 13 13 13 13 13 13 14 13 12 12 12 12 12 13 13 13 13 14 14 15
4 3 2 3 3 3 3 3 3 3 5 5 4 5 3 1 3 3 3 4 2 2 3 4 4 2 2 1 4 4 1 3 4 4 4 5 4 3 5 6 6 5 6 5 3 3 5 8 9 8 7 8 10 9 10 9 9 11 11 12 11 12 12 12 12 13 13 13 13 13 12 12 12 12 11 12 11 12 12 12 11 12 12 13 14
5 5 4 4 3 3 3 4 3 3 3 3 4 2 2 3 2 3 3 2 5 4 4 4 5 0 0 1 2 4 3 3 3 3 4 5 5 5 3 4 4 7 5 6 4 4 6 8 9 9 7 8 9 9 9 10 8 10 10 10 14 13 13 13 13 13 13 13 13 13 13 12 11 11 11 11 11 11 10 11 11 11 11 11 12
6 5 5 5 3 3 3 2 3 3 4 3 3 0 1 3 1 2 2 0 3 3 4 3 3 3 2 2 2 3 2 3 3 3 5 4 5 6 2 0 1 5 5 4 6 5 4 6 10 8 9 7 10 10 10 10 10 10 11 10 11 12 13 13 13 13 13 13 13 12 12 11 11 11 11 11 11 10 10 10 10 10 10 10 10
6 7 5 5 4 4 4 4 4 4 3 2 2 1 2 3 4 4 3 4 3 3 1 1 5 2 5 3 1 3 3 1 3 6 4 4 5 5 3 1 3 3 5 5 5 5 5 4 5 4 3 6 11 10 10 10 10 12 12 12 12 12 14 14 13 13 13 13 13 12 11 11 10 10 10 10 9 9 9 9 9 10 10 10 10
7 6 5 5 5 5 5 4 4 4 4 4 4 3 4 5 6 7 5 4 4 3 0 1 3 4 6 6 5 5 9 7 3 4 4 4 3 5 4 1 4 2 4 4 5 6 6 5 4 4 4 5 11 10 10 11 9 10 12 12 12 11 11 13 14 14 13 13 13 12 11 10 10 10 10 9 9 8 8 8 9 9 9 10 10
6 6 7 6 5 4 5 5 5 5 5 5 5 5 5 4 5 5 5 4 4 2 2 5 2 2 1 3 3 1 1 5 1 2 3 3 3 4 2 3 4 4 3 5 4 7 7 6 5 5 5 4 5 9 9 10 10 10 10 11 12 12 12 11 13 14 13 13 13 12 11 10 9 9 9 9 9 8 8 8 8 9 9 9 11
5 6 6 6 6 6 5 5 5 5 5 5 5 5 5 5 4 3 3 4 3 3 2 4 2 4 2 1 2 3 1 3 1 2 2 3 3 3 2 4 4 4 4 4 3 3 4 5 4 7 6 5 5 4 4 6 8 11 10 10 11 12 13 12 12 12 14 13 12 12 11 11 10 10 9 8 8 8 8 9 10 10 10 11 12
6 6 6 6 6 5 5 5 5 6 6 6 6 5 5 6 6 5 4 2 2 2 3 4 4 4 3 1 2 2 3 2 1 1 2 2 4 2 2 3 6 3 2 3 4 4 2 4 4 6 6 6 5 5 5 5 6 10 11 11 11 12 12 13 13 12 13 13 12 12 11 11 10 9 9 9 7 7 8 9 10 10 10 11 11
6 6 5 5 5 5 5 5 5 5 6 6 6 6 5 6 5 4 3 3 4 4 5 5 4 7 4 4 2 0 1 5 4 2 2 2 3 3 2 4 5 7 3 5 4 5 4 3 5 3 2 5 6 6 6 5 9 9 8 7 8 12 12 13 13 13 13 13 12 12 11 11 10 9 8 7 7 6 8 9 9 8 9 9 9
5 6 6 6 5 4 4 4 5 5 5 6 6 6 6 6 5 5 5 4 4 3 5 7 7 7 4 4 2 2 5 0 5 2 3 2 2 3 3 4 4 3 5 3 3 3 3 4 4 4 6 4 4 5 4 4 7 6 7 8 6 8 12 13 13 13 12 12 12 13 12 11 10 8 8 8 6 7 8 10 8 8 7 8 8
6 6 7 6 6 6 5 5 5 5 5 6 5 5 7 6 6 6 6 6 3 3 2 0 4 5 4 3 1 2 4 3 4 3 1 0 1 2 2 3 4 5 4 4 5 5 2 6 5 4 4 4 4 4 5 5 5 5 5 6 10 7 8 11 14 13 14 13 13 13 11 10 9 8 8 8 8 7 9 10 9 8 8 8 8
6 6 5 6 6 6 5 5 6 6 6 5 6 6 6 7 5 6 6 5 4 3 4 5 1 1 3 4 4 2 1 4 3 3 2 1 2 2 2 2 5 6 4 4 3 8 6 5 6 6 5 4 4 5 5 6 7 6 9 10 11 9 6 4 7 14 14 13 13 13 12 10 9 8 7 7 8 10 10 9 8 8 8 9 9
4 6 6 6 6 6 6 5 6 6 6 5 6 6 5 4 6 5 4 5 5 6 5 5 7 4 5 6 4 3 4 0 1 3 1 3 4 2 0 2 4 7 5 6 3 4 7 6 6 6 5 6 5 5 5 5 5 5 6 12 10 10 8 6 3 5 13 13 14 13 13 12 11 9 9 9 11 11 10 9 9 9 9 9 10
5 5 5 7 6 6 6 6 6 6 6 5 6 5 6 4 5 7 9 7 8 8 6 6 6 5 6 5 4 4 3 1 2 4 2 2 2 6 3 2 5 4 3 3 4 4 6 5 3 3 5 6 5 4 4 5 6 5 6 11 10 9 9 6 4 3 10 13 14 14 14 13 12 11 11 11 12 11 10 10 10 10 10 10 11
5 6 6 6 6 5 6 7 6 7 6 6 6 7 6 5 7 8 9 9 8 9 8 6 7 6 7 6 6 4 3 3 2 3 1 2 2 4 5 7 8 5 3 4 8 7 6 6 6 4 4 7 6 6 5 4 4 5 7 11 10 10 10 8 5 5 7 6 10 13 13 9 9 11 12 14 13 11 11 11 11 11 11 11 11
4 4 6 6 5 6 5 6 7 6 6 6 7 8 6 6 6 8 9 10 8 7 6 5 5 6 6 6 7 7 7 6 5 5 3 2 2 4 4 6 7 6 7 6 6 7 7 6 7 9 7 6 5 7 7 6 7 7 12 12 11 11 9 8 7 5 6 5 10 13 12 10 9 10 13 14 13 12 12 12 12 11 11 12 12
4 4 4 5 5 6 6 7 5 5 6 6 6 7 7 6 6 8 9 9 7 7 8 9 7 6 7 6 6 5 5 5 4 6 7 5 5 3 4 4 6 5 5 6 5 6 6 6 6 7 7 4 4 7 8 8 7 15 11 11 12 12 10 9 8 6 6 7 9 10 10 8 10 11 15 14 13 12 12 12 12 12 12 12 12
5 4 4 5 5 6 6 3 4 7 7 7 7 8 7 8 7 9 9 9 9 9 8 9 9 8 8 6 6 6 5 3 4 5 5 5 4 4 4 6 4 5 5 7 5 4 5 6 5 6 6 6 6 5 7 7 8 11 11 9 11 10 11 11 10 8 8 9 9 9 9 9 10 13 15 13 12 12 12 11 10 9 9 10 11
6 6 4 5 6 6 4 6 6 7 9 8 8 6 6 5 8 9 10 8 8 10 9 8 8 8 6 6 7 7 6 5 5 5 6 6 5 6 4 4 6 3 6 6 5 5 4 5 9 5 7 6 6 7 7 8 8 11 11 8 9 11 11 10 10 8 8 8 7 8 9 8 9 11 12 12 11 9 11 11 10 7 7 8 10
5 6 6 7 6 4 3 4 8 9 9 8 8 7 8 8 7 9 9 7 8 8 7 9 9 9 6 7 7 6 6 6 6 5 5 6 6 7 5 8 5 2 3 2 2 5 5 6 5 5 7 5 4 8 9 8 10 12 11 8 6 9 10 10 9 9 8 8 8 9 9 11 10 6 11 13 12 13 12 11 9 8 7 6 6
4 5 5 3 4 3 2 5 8 8 7 9 8 6 6 6 8 7 9 5 8 10 8 9 7 8 9 7 6 6 6 6 6 6 6 6 6 7 8 8 9 8 3 4 4 6 5 2 5 7 5 7 5 8 10 12 9 14 11 7 6 6 9 10 10 10 8 7 9 10 12 12 9 12 14 14 13 13 12 11 10 8 7 5 6
5 5 4 4 3 4 5 6 4 6 8 9 9 6 5 6 7 8 9 9 7 9 8 8 9 8 8 8 6 5 6 6 5 6 6 6 7 8 9 7 6 8 8 7 8 5 7 9 4 3 2 3 7 9 9 8 11 11 7 7 7 6 7 10 10 10 9 9 9 10 10 10 11 13 14 14 13 11 11 11 10 9 7 6 9
5 5 4 5 4 4 2 2 3 5 7 7 7 7 6 7 8 8 7 7 7 5 7 9 9 7 6 6 5 5 5 6 6 5 5 5 6 7 6 6 6 6 6 8 6 7 7 5 3 5 5 5 8 7 7 8 13 12 9 9 8 7 10 11 11 10 10 11 11 11 10 11 12 13 14 14 13 13 11 11 10 8 7 8 11
5 6 4 5 3 5 4 3 2 7 9 9 8 5 6 7 9 8 7 7 8 10 10 9 8 8 9 11 8 6 6 7 7 7 6 5 5 5 4 8 7 6 4 5 5 3 4 5 3 5 7 8 8 7 8 9 13 11 8 9 8 11 12 9 12 11 11 12 12 10 11 12 12 12 13 13 12 11 11 9 8 7 8 9 9
6 5 6 5 4 5 3 2 4 5 6 5 4 6 7 8 8 6 8 9 9 9 9 10 10 12 11 11 9 8 7 6 6 7 7 5 4 5 4 5 7 8 6 6 7 7 2 5 5 8 9 8 8 8 9 8 11 14 4 8 11 13 8 6 10 12 12 12 12 11 12 11 11 12 12 12 12 11 10 10 10 10 8 8 10
6 7 6 7 7 5 4 4 4 2 4 9 7 7 7 9 7 9 5 6 9 9 9 10 10 10 11 11 10 9 7 7 6 7 7 6 5 4 4 4 3 5 6 6 7 6 1 3 6 6 8 8 8 10 10 8 8 7 6 10 11 8 7 6 6 10 12 12 12 11 11 12 12 11 12 13 12 12 12 11 10 10 8 9 10
7 8 9 7 4 4 4 5 4 4 5 7 8 7 6 5 6 7 6 9 7 8 6 8 9 9 9 10 9 9 8 8 7 8 7 6 5 5 5 4 2 2 3 3 7 8 7 4 6 6 6 6 7 11 10 9 7 8 9 9 8 8 8 7 6 7 12 12 11 11 11 11 11 11 11 12 12 12 11 10 10 9 8 9 9
6 7 8 6 7 7 5 4 5 4 4 6 7 7 7 6 8 8 5 8 9 8 7 8 10 8 7 7 8 7 7 8 8 6 6 6 5 5 5 3 4 4 3 6 4 7 9 6 6 8 8 5 5 11 10 9 8 10 10 9 9 8 8 9 8 7 12 12 13 11 11 11 10 10 11 11 11 11 10 9 9 8 8 8 8
8 6 6 7 7 5 6 4 3 4 3 4 3 1 3 4 6 9 8 6 8 9 7 8 8 8 8 8 8 8 8 8 6 5 3 5 5 4 3 4 2 4 1 5 4 8 8 8 6 7 7 10 4 10 10 8 8 9 9 9 9 9 9 9 9 8 10 14 13 12 12 11 11 11 11 10 10 10 9 9 8 8 8 7 6
10 7 6 5 5 4 6 6 5 5 5 4 4 4 5 5 5 6 7 8 9 9 8 8 7 7 8 8 8 6 5 6 5 5 4 4 4 3 6 1 2 3 3 5 5 6 8 8 7 5 5 6 8 10 10 9 8 8 10 10 10 9 10 9 8 8 12 13 12 11 11 11 11 11 11 10 10 9 9 8 7 6 5 5 3
12 9 7 7 6 6 6 7 6 6 5 4 5 6 6 4 6 6 5 5 5 6 6 6 6 5 5 7 5 4 6 6 7 5 4 4 4 5 6 6 6 5 5 7 3 4 5 8 7 8 10 9 7 9 10 10 9 8 9 10 8 9 10 8 6 6 5 6 6 5 6 8 10 11 10 10 9 9 8 7 6 6 5 5 5
14 14 11 9 7 5 7 5 6 7 6 5 5 4 3 5 7 8 7 6 6 5 5 5 6 5 4 5 4 0 2 4 7 7 6 5 6 5 6 7 6 5 4 1 1 3 3 6 6 7 7 6 5 8 10 10 9 6 8 6 5 6 8 10 6 5 6 6 7 10 9 9 9 8 10 10 9 8 7 7 7 7 7 6 5
13 13 14 13 9 6 6 5 4 5 6 5 5 6 6 5 6 6 6 5 6 6 5 7 6 6 2 1 3 5 6 8 6 4 5 7 7 6 7 7 7 6 7 5 1 4 4 4 7 5 4 7 5 7 8 9 7 4 7 5 7 7 8 7 9 9 7 7 8 7 6 6 7 8 8 7 8 8 8 7 8 6 6 6 5
11 13 13 13 12 10 6 4 4 5 6 6 6 6 6 6 6 6 6 6 6 5 6 6 5 5 3 3 3 7 6 3 8 8 7 8 8 8 7 7 7 5 7 9 6 5 8 5 7 5 4 5 5 7 8 7 7 6 6 5 5 7 7 8 7 9 10 9 6 7 8 8 6 5 5 5 5 6 6 10 9 11 10 10 9
13 12 13 13 13 12 11 8 5 4 6 6 6 9 7 6 6 5 4 3 4 3 5 6 8 8 7 5 6 10 11 10 6 9 11 12 12 8 8 7 9 8 9 7 7 5 5 7 7 4 4 6 6 4 5 5 6 6 7 6 7 7 7 5 5 3 4 7 7 6 6 7 6 7 6 6 6 4 5 5 5 7 8 10 10
13 13 13 14 13 12 13 10 8 7 6 4 5 3 9 9 6 6 6 5 4 3 1 3 5 5 6 8 5 4 8 9 6 10 11 10 12 12 9 8 11 12 9 7 8 5 5 7 6 0 2 5 5 4 5 6 4 6 7 7 7 7 7 7 4 1 5 4 7 7 6 3 8 8 7 6 6 7 6 7 10 11 11 10 10
12 12 13 13 13 12 12 12 12 9 5 12 15 12 8 10 8 3 0 1 3 3 3 4 4 5 7 7 5 3 5 2 7 7 9 11 12 12 12 10 11 15 13 12 10 7 6 7 6 3 0 3 5 5 5 5 6 6 5 4 4 6 5 5 4 4 2 3 8 8 6 4 7 9 8 6 6 6 7 9 11 12 11 11 11
11 12 13 13 13 13 12 12 12 13 9 15 16 16 13 8 4 5 3 3 3 2 4 7 4 2 5 8 6 6 5 7 3 5 7 9 13 17 15 14 11 10 14 12 9 9 6 8 7 2 2 3 6 3 3 5 5 7 4 6 6 7 7 7 3 3 3 4 9 7 7 4 6 8 8 5 6 6 7 8 12 12 12 12 11
12 12 12 13 13 13 13 12 10 9 9 14 12 13 10 8 5 2 2 1 2 3 1 4 4 4 2 4 6 4 5 6 5 5 9 10 10 8 8 7 7 9 10 8 4 9 8 7 7 3 1 3 6 5 5 4 5 5 8 5 5 7 8 7 5 6 4 5 4 6 6 6 6 8 8 6 6 5 5 8 13 13 12 12 11
12 12 13 13 12 13 14 12 10 9 8 17 16 12 11 7 6 1 1 1 3 3 4 2 5 6 5 6 5 3 5 6 6 5 7 9 9 9 8 8 8 6 5 5 5 2 6 8 9 8 6 7 7 7 5 8 8 6 7 8 7 8 8 7 7 5 7 7 6 1 5 5 5 8 8 8 6 5 5 8 11 12 12 12 12
10 10 10 11 12 14 13 13 12 10 11 17 19 16 9 7 2 3 3 2 7 8 8 6 5 4 2 6 5 4 2 3 8 7 4 9 11 11 10 9 9 8 8 6 4 9 11 10 10 11 9 10 11 11 9 8 7 7 8 8 8 9 9 8 6 2 5 5 7 4 5 3 6 7 7 7 7 6 5 4 7 10 12 11 12
10 11 10 10 10 12 14 13 13 11 12 17 21 20 8 4 6 7 7 8 9 9 9 8 7 8 8 4 4 4 6 7 4 12 10 8 11 11 11 10 9 11 9 7 14 19 20 19 18 18 19 17 17 17 18 17 9 6 9 9 6 6 7 8 5 4 4 3 6 6 2 5 3 7 7 7 8 7 6 5 5 7 9 11 13
9 9 9 9 10 10 13 13 13 10 11 17 22 20 9 13 12 9 9 9 9 9 9 9 8 9 11 17 11 7 7 5 7 13 13 9 9 9 10 12 12 12 10 9 8 10 15 18 18 19 19 17 17 18 19 19 19 11 4 7 4 6 5 6 5 3 3 5 4 5 2 4 2 2 5 7 5 4 5 5 6 5 6 4 8
7 7 8 9 10 10 11 12 21 15 11 15 22 18 18 16 11 9 8 9 9 9 8 9 9 8 9 11 14 11 9 8 9 8 13 10 10 10 10 11 13 10 6 2 7 11 9 10 10 10 12 11 10 11 13 20 18 14 10 6 2 5 6 7 8 5 5 3 4 5 3 3 4 1 2 5 5 3 4 6 6 5 5 3 4
Wind_Direction
211 186 182 189 168 154 183 223 292 251 185 242 218 207 219 237 203 213 222 219 82 298 274 269 296 258 143 145 244 117 22 106 115 121 122 130 130 136 144 143 137 134 146 150 135 128 130 123 126 119 107 101 101 101 103 106 107 98 98 96 99 95 87 85 88 90 87 85 84 86 85 83 83 82 84 85 83 78 80 79 75 72 69 66 65
260 175 184 246 148 219 213 182 194 194 269 231 226 192 224 233 216 217 221 146 189 250 287 254 271 228 204 165 239 109 53 92 121 121 130 119 119 141 145 143 136 148 162 143 132 135 133 129 111 108 112 117 116 111 108 109 107 109 105 103 96 95 93 94 94 93 91 88 86 84 85 85 88 89 87 85 82 81 78 77 75 73 72 71 71
226 229 134 205 195 183 246 262 266 225 216 262 274 197 218 230 242 206 220 157 197 257 253 284 239 206 217 139 178 135 162 121 110 110 113 122 130 138 142 143 132 114 135 143 146 147 148 139 125 124 118 117 119 118 111 112 110 107 107 106 102 98 99 97 97 100 98 94 92 92 90 85 83 84 83 82 82 81 79 77 76 74 72 72 72
208 196 176 168 189 186 209 206 234 229 203 229 315 317 232 223 253 294 209 99 144 195 252 226 250 231 161 163 184 134 162 123 116 125 123 130 138 145 142 132 135 127 118 136 150 167 155 142 133 139 129 133 130 124 122 113 119 115 113 111 112 110 103 103 101 98 97 94 94 94 94 87 84 85 84 81 80 81 79 76 73 73 72 72 73
187 198 173 160 179 186 131 265 227 221 215 199 152 246 285 234 264 276 234 170 173 205 246 246 242 241 209 189 174 139 159 130 124 124 129 135 148 142 153 148 143 130 130 132 135 152 159 143 139 145 140 136 127 123 119 126 122 120 123 116 114 111 108 102 102 104 100 98 98 98 96 93 88 84 85 87 83 79 77 74 73 75 76 73 73
192 209 158 154 180 196 183 198 193 266 212 216 190 209 238 214 227 239 243 178 210 187 254 259 249 248 211 220 140 142 135 128 130 126 128 149 145 147 149 156 148 146 149 151 158 136 119 136 149 144 137 139 134 126 129 134 135 124 118 119 120 117 114 117 114 109 109 106 105 104 104 103 98 91 89 86 84 81 80 77 77 78 78 75 74
198 203 182 182 188 191 183 179 149 190 208 216 227 248 255 255 209 230 216 206 205 193 246 259 252 235 78 325 50 1 117 118 126 128 148 148 142 151 149 148 146 155 146 145 154 152 147 142 152 145 140 149 136 134 134 138 136 128 128 124 121 115 116 116 111 106 103 105 105 103 105 108 105 99 91 88 90 90 85 83 81 78 76 76 75
195 179 213 209 177 194 188 181 169 173 208 213 225 239 242 315 296 229 228 207 201 233 250 257 261 241 149 13 132 211 195 126 140 146 154 135 114 98 103 132 149 152 152 150 157 163 159 151 156 150 152 155 139 140 141 146 135 136 139 131 125 124 123 120 118 118 118 111 110 109 105 103 104 102 97 93 93 90 86 84 83 80 78 76 74
200 194 211 217 187 181 192 186 185 182 192 242 221 211 131 194 238 359 350 261 218 211 230 253 253 34 339 257 160 169 148 142 159 145 108 99 99 92 91 129 153 168 139 146 147 143 153 156 159 150 156 153 147 139 149 146 146 138 131 131 137 130 129 130 125 119 118 116 113 113 113 111 110 107 103 101 100 95 92 87 85 82 80 78 75
193 195 207 207 195 197 179 175 197 197 181 159 254 102 151 174 221 248 189 75 287 237 210 240 335 31 294 309 287 181 147 135 174 118 95 86 84 96 115 26 214 143 143 149 141 151 150 161 151 153 168 164 140 147 157 151 152 148 137 143 133 131 133 127 124 124 123 120 116 113 114 113 110 110 110 110 103 102 99 94 85 85 81 79 76
190 190 202 195 198 196 196 191 199 203 199 182 174 160 214 165 197 242 245 218 210 277 301 71 268 137 261 237 357 337 28 344 117 78 87 96 98 108 85 54 5 144 155 153 147 153 150 156 154 167 144 152 149 157 158 152 160 155 148 149 144 139 138 134 130 130 127 122 123 120 118 117 115 111 113 114 116 107 94 87 93 90 87 80 77
200 192 202 200 194 193 198 199 202 187 194 205 188 182 209 193 198 204 209 228 245 262 84 88 326 71 5 332 16 31 331 310 49 99 117 119 117 113 133 131 111 294 143 158 168 149 153 161 177 161 152 161 160 161 167 161 167 164 157 155 147 141 138 135 137 132 132 131 129 127 126 123 122 125 123 122 117 107 97 95 90 91 86 82 83
201 193 196 202 201 201 203 201 196 197 200 208 193 188 190 194 198 205 197 203 223 209 205 115 184 81 171 318 23 6 180 291 274 88 95 110 113 109 118 119 106 247 200 172 172 148 160 172 182 153 152 158 161 169 167 159 171 178 168 158 152 151 150 144 138 137 138 138 135 134 133 130 127 124 122 119 116 108 98 94 95 89 90 94 95
186 191 197 197 200 205 202 197 195 200 209 209 200 192 184 187 171 187 217 203 213 176 172 113 151 164 157 320 356 319 285 242 304 94 97 113 117 106 150 149 151 198 205 189 150 136 156 164 144 148 160 160 164 166 138 157 176 184 174 166 160 158 156 153 145 144 143 143 144 140 140 135 133 129 123 119 108 96 99 102 97 98 98 98 97
190 195 201 205 207 208 206 199 209 203 210 217 205 197 195 197 179 182 176 204 237 226 191 170 157 88 116 162 233 203 230 236 260 237 158 135 121 158 168 128 124 195 199 193 142 153 161 159 160 158 164 166 166 164 170 173 173 186 178 174 165 165 163 157 153 152 149 149 149 146 144 139 135 132 130 123 114 108 113 111 101 98 100 99 100
202 202 207 215 214 217 211 200 208 209 213 213 212 208 198 199 177 178 162 184 199 220 201 190 144 143 154 196 176 41 258 221 197 198 178 169 150 167 159 119 125 154 255 192 158 143 166 186 174 149 156 175 163 166 177 189 166 170 174 181 176 169 168 161 157 160 154 155 155 152 149 145 143 138 131 118 113 114 120 109 103 107 104 102 105
211 208 212 213 220 229 217 206 213 212 212 216 216 209 209 202 179 169 191 200 203 216 191 184 171 187 146 150 103 203 223 98 165 176 163 172 187 161 149 131 130 170 194 156 136 103 160 166 179 166 188 162 173 154 175 166 154 175 178 174 182 184 173 168 162 163 163 159 162 157 157 153 149 146 126 123 124 127 130 114 116 112 106 107 104
217 220 220 210 214 218 215 186 215 218 218 220 218 200 204 203 196 191 202 211 229 255 167 24 159 158 181 187 95 164 163 148 164 201 119 337 159 172 152 159 130 215 173 157 133 141 245 180 202 169 160 155 148 158 180 154 165 174 167 182 184 189 194 174 166 169 167 171 168 166 161 162 158 158 140 144 143 144 136 120 114 115 120 116 112
218 227 216 220 212 218 221 176 195 211 218 217 216 210 201 201 190 197 204 207 198 216 192 179 91 215 200 205 196 175 240 135 194 108 191 164 211 181 169 154 175 221 197 165 160 140 168 208 186 161 161 163 159 170 163 166 170 178 175 174 176 179 181 189 185 172 173 179 175 169 171 174 173 173 164 156 152 144 137 124 124 116 117 118 111
218 219 227 215 221 224 222 208 196 198 218 223 216 216 192 186 180 200 202 193 200 215 186 173 179 188 188 199 206 192 232 277 101 149 123 166 183 161 141 187 219 215 197 152 203 153 175 169 165 168 152 169 172 167 172 166 171 168 164 157 163 166 160 165 96 165 175 182 186 182 180 179 178 175 163 152 152 144 139 134 124 122 123 121 119
252 245 226 233 220 215 218 226 213 199 193 219 230 211 200 178 183 200 213 204 197 216 189 185 187 192 172 203 191 194 195 169 123 135 194 200 175 172 195 206 234 231 195 131 189 198 161 162 144 184 156 167 176 170 164 168 166 153 150 154 150 154 158 150 151 151 178 190 183 185 183 182 180 173 160 151 150 141 140 131 128 131 128 128 128
233 243 247 234 233 226 224 229 229 225 189 203 216 222 202 187 207 206 206 207 199 206 198 186 189 200 193 177 181 173 192 177 166 148 172 181 190 184 175 189 199 208 186 159 209 178 167 167 165 197 206 174 177 159 163 163 154 135 152 152 151 158 155 156 163 145 160 185 191 185 181 176 188 169 156 153 148 145 143 138 139 136 134 132 132
241 243 249 252 239 227 223 248 237 227 216 201 212 215 206 195 213 223 216 202 197 194 193 210 191 193 190 183 187 187 189 185 180 164 156 165 194 189 172 200 199 175 199 179 203 179 171 184 160 181 209 177 155 147 167 170 173 143 150 155 154 156 153 162 167 153 164 163 185 182 175 175 178 165 159 154 147 149 149 145 143 139 138 137 136
222 243 261 264 249 241 227 223 236 264 225 208 216 208 210 200 209 223 219 208 196 193 187 207 195 191 196 191 195 195 188 182 150 150 162 181 178 199 189 182 202 194 167 180 210 190 171 179 183 173 179 173 176 167 164 162 142 142 148 157 159 154 152 160 165 165 165 156 142 161 183 172 176 168 161 155 149 153 152 148 144 143 142 143 142
275 270 259 281 313 310 296 304 271 267 270 235 227 218 201 195 212 223 209 200 196 194 196 197 190 193 194 192 189 195 199 182 145 160 163 146 172 185 212 193 206 182 167 165 193 200 158 179 229 185 167 180 186 167 135 134 141 150 144 156 153 150 154 158 160 162 166 155 156 165 168 182 183 169 162 155 155 155 155 143 133 137 145 146 145
270 260 243 253 247 243 288 302 303 281 256 259 246 217 215 234 208 212 212 200 192 194 193 191 193 200 190 185 193 195 195 183 180 163 168 162 175 195 196 181 212 208 157 170 194 177 238 187 200 190 185 179 180 143 138 135 135 149 141 141 148 154 157 162 159 151 149 146 140 135 153 177 173 175 160 150 145 133 118 117 120 124 131 141 151
259 265 254 256 270 264 223 289 286 276 274 261 267 259 221 208 224 221 220 191 186 190 192 192 195 200 197 196 193 187 192 189 181 176 177 181 173 171 166 197 171 202 135 254 155 218 194 165 188 152 188 172 174 135 137 139 142 148 139 142 144 154 159 163 153 143 142 149 141 141 144 145 145 156 129 119 125 131 130 126 125 124 124 141 158
271 277 267 238 241 216 151 238 248 259 271 269 250 235 259 250 234 215 224 191 171 184 194 200 200 204 203 202 185 191 191 195 188 189 191 176 165 180 187 213 163 166 144 189 206 199 209 196 144 168 203 174 159 136 128 131 141 150 148 138 140 154 162 160 153 145 151 155 153 156 154 139 139 143 131 136 138 138 137 137 135 134 134 140 149
281 269 285 284 242 240 211 204 241 258 261 265 261 251 238 233 231 218 218 200 187 189 187 193 206 208 206 202 194 190 192 196 197 190 200 179 182 194 203 197 175 155 167 189 196 158 191 204 150 202 230 149 110 129 133 144 151 160 143 139 145 142 158 154 150 151 156 156 156 160 149 141 147 144 140 143 145 142 143 145 144 141 141 145 134
280 275 257 255 265 271 253 220 209 258 262 263 269 255 258 260 252 221 211 209 203 207 208 201 204 204 199 210 200 203 195 198 204 208 209 209 196 206 185 153 161 157 186 172 177 171 172 168 144 147 209 160 141 141 136 139 163 177 145 145 150 145 158 155 155 157 158 157 158 161 158 154 156 151 149 150 150 148 148 149 149 147 151 157 148
281 285 283 282 286 282 280 260 211 255 260 265 265 265 274 265 238 237 225 199 195 200 208 201 203 198 197 201 197 205 193 198 202 205 215 217 215 197 205 140 188 180 200 153 153 201 147 164 154 132 175 172 158 153 135 149 175 185 145 148 139 144 152 156 159 162 165 162 160 159 160 159 159 156 154 154 152 151 152 155 152 154 163 162 140
291 280 283 274 245 246 240 230 242 242 267 260 269 264 251 254 255 248 233 208 208 206 200 195 189 193 195 192 192 200 194 192 199 202 202 211 214 205 166 146 163 182 192 162 161 171 156 150 162 146 179 165 171 147 135 157 176 196 140 129 134 141 152 151 163 164 169 163 161 162 161 156 159 160 159 158 157 157 160 162 161 163 166 143 148
304 293 286 288 285 280 273 257 260 248 273 277 258 254 255 259 264 250 244 240 222 211 204 201 194 190 199 198 193 198 198 197 201 199 199 197 200 157 156 169 158 166 182 154 153 138 105 163 148 153 177 178 168 145 144 151 161 177 135 129 141 154 150 151 159 169 169 164 164 165 157 155 160 165 163 162 161 163 162 165 165 164 156 150 161
303 301 292 290 289 286 273 260 253 243 227 250 252 238 248 265 272 273 249 253 242 225 210 202 205 201 196 203 198 194 198 205 205 203 191 187 191 157 174 175 169 38 308 181 156 154 155 164 147 141 161 206 167 146 150 149 161 134 130 140 156 162 161 154 155 173 174 166 165 164 156 159 166 167 165 164 163 162 162 164 164 163 159 159 167
314 298 294 289 291 293 284 259 258 258 255 262 258 234 220 223 236 255 259 241 248 235 212 215 209 194 191 202 204 188 193 206 206 203 183 178 141 164 177 146 98 167 149 260 193 153 154 164 154 146 169 192 226 146 148 155 148 137 141 155 168 174 164 165 165 166 177 170 169 162 162 166 168 169 166 167 166 163 163 162 162 162 166 166 173
310 296 293 303 290 281 281 255 243 256 237 247 271 178 214 237 227 237 233 230 242 239 220 213 210 199 193 197 205 195 195 201 195 193 160 144 163 170 139 65 130 152 339 237 188 155 158 151 179 159 175 177 200 143 145 159 159 147 158 167 176 181 160 171 170 168 179 175 168 167 168 170 169 170 169 168 166 163 161 162 161 168 171 170 172
308 310 306 290 286 273 276 278 265 250 241 242 238 236 234 229 228 222 232 229 225 229 225 223 214 210 200 203 201 195 189 192 190 182 156 160 144 126 71 98 135 134 188 225 202 143 155 159 161 151 135 190 191 144 154 159 175 168 162 177 181 182 164 168 163 163 165 173 167 170 171 170 171 171 169 167 163 161 159 159 160 158 150 149 157
320 311 311 310 305 300 297 289 278 262 240 230 226 221 226 227 219 220 227 215 213 230 241 232 220 198 198 206 209 192 201 190 194 176 158 160 115 111 129 157 166 144 202 223 212 150 155 164 155 141 186 200 157 153 161 164 172 180 169 182 180 152 152 145 135 133 139 164 164 172 172 170 174 171 168 165 161 157 152 149 139 115 105 95 90
336 329 322 314 308 293 281 277 276 277 258 228 223 222 201 202 221 227 219 218 218 207 222 224 212 218 204 190 193 71 329 252 206 170 159 128 113 166 179 163 175 170 158 230 183 177 176 163 162 175 185 172 153 156 166 166 178 181 155 159 141 132 113 133 130 141 160 169 178 170 171 177 169 175 174 167 157 134 121 112 102 103 106 109 116
336 336 333 324 309 286 269 268 284 284 270 249 225 228 226 209 215 221 218 201 203 191 190 218 212 211 185 147 128 170 193 213 193 153 143 147 174 162 174 178 180 173 134 130 352 257 205 182 161 195 178 169 171 166 170 155 173 182 147 144 146 142 137 146 153 156 175 166 166 173 174 175 165 169 148 112 105 116 124 117 105 109 107 113 97
340 335 331 332 325 311 282 246 276 294 271 249 233 223 226 218 200 216 222 219 206 180 184 186 188 238 198 215 200 216 174 174 205 183 170 166 165 166 178 169 169 139 109 140 155 171 225 188 157 185 177 149 160 141 139 149 167 177 152 143 137 149 151 145 170 170 161 169 168 153 170 175 160 149 134 148 134 139 134 111 100 91 92 90 89
344 342 342 344 343 341 328 316 295 279 273 261 228 225 230 223 208 211 225 216 214 182 192 178 179 192 181 161 232 200 143 179 211 155 165 168 176 173 161 158 143 147 155 165 155 184 147 137 156 192 178 152 169 156 146 148 161 152 146 145 138 152 146 169 112 83 155 164 151 149 143 163 152 146 145 125 145 133 112 110 108 115 105 99 91
349 349 348 345 345 342 342 332 316 297 290 279 332 285 222 216 206 207 208 207 184 163 231 228 208 154 125 134 166 117 116 162 179 156 161 167 178 170 153 141 157 160 157 158 165 173 155 145 141 44 163 153 170 155 146 151 141 141 161 155 149 146 157 155 142 143 16 77 109 104 76 92 111 102 92 98 107 100 103 114 119 111 107 104 103
354 349 353 349 343 345 345 347 336 312 282 0 334 322 285 234 210 195 238 116 119 176 199 222 227 142 132 131 133 123 123 161 181 128 85 70 68 82 91 91 136 160 168 170 161 162 169 144 142 169 18 163 163 140 144 139 124 113 109 112 130 151 131 117 125 105 0 61 104 99 95 69 92 104 101 108 116 113 120 131 127 124 125 128 127
353 355 357 353 351 349 349 348 0 5 10 4 353 343 330 307 228 167 180 155 203 161 183 210 207 137 131 130 129 151 145 158 160 107 104 92 97 98 88 79 66 131 172 181 156 158 149 136 126 158 238 184 143 145 144 144 118 120 109 65 61 85 105 105 90 90 41 83 96 106 121 136 116 107 100 77 91 112 122 133 138 141 141 135 128
1 357 360 1 357 356 352 347 351 360 355 355 354 334 328 1 34 316 130 178 222 219 89 59 45 23 24 118 141 167 131 141 123 143 125 122 119 106 85 73 78 48 29 36 71 115 124 129 132 144 43 75 68 50 52 77 98 96 100 112 107 89 86 95 97 85 56 35 97 132 110 135 124 111 108 116 127 135 141 160 157 148 141 139 135
4 1 1 3 1 359 357 353 346 350 351 355 348 334 336 352 4 335 237 198 120 93 107 157 155 171 178 164 135 131 131 145 145 148 145 126 106 94 86 80 67 47 39 47 88 154 108 89 91 81 48 55 73 52 50 77 93 101 111 115 109 100 90 72 56 56 49 26 19 114 115 135 121 115 134 144 152 134 150 174 169 154 149 146 139
8 4 3 7 4 3 359 358 351 345 348 353 347 335 326 305 306 50 344 60 91 80 68 50 35 11 68 127 115 72 25 45 130 159 166 114 105 104 98 94 80 73 57 24 352 74 81 95 98 96 82 65 69 69 46 55 69 87 100 106 98 100 100 99 107 22 64 24 24 50 104 113 141 138 143 140 135 143 162 165 205 169 157 154 144
10 10 5 8 6 5 6 5 359 351 348 351 347 338 314 290 92 71 72 66 71 77 67 54 32 29 32 60 89 132 125 83 126 132 113 110 116 114 110 99 93 86 79 51 65 84 92 94 94 93 89 76 62 57 57 53 57 91 104 97 117 138 137 124 120 94 55 40 26 15 71 103 128 135 140 148 158 161 168 168 186 202 177 166 147
14 14 5 8 10 8 12 10 6 358 352 354 353 336 356 57 75 77 73 73 70 69 68 55 54 49 38 48 60 65 69 70 139 143 147 123 100 93 101 107 96 96 98 106 101 83 96 97 94 91 84 74 72 60 54 49 45 42 98 118 141 102 127 119 119 106 94 55 28 3 67 129 155 96 139 157 136 165 158 162 180 187 195 217 151
23 17 11 13 13 13 13 14 14 11 354 3 356 343 36 42 65 78 72 76 68 58 61 60 50 47 43 46 53 60 64 67 79 116 105 102 107 113 110 99 97 93 97 118 109 110 97 88 76 69 73 74 68 66 57 52 46 46 46 53 51 123 122 120 117 118 76 22 2 10 78 119 103 355 55 141 164 160 169 159 173 177 180 178 153